[[{"header":{"parameterUnit":"m.s-1","parameterCategory":1,"la1":30.2991,"la2":30.254,"lo1":-89.0895,"lo2":-89.0444,"dy":0.0017,"dx":0.0017,"nx":28,"ny":28,"refTime":"2025-02-10T03:00:00:Z","depth":0,"parameterNumber":2,"parameterNumberName":"U-component_of_WINDS"},"data":[0,0,0,0,0,0,0,0,0,0,0,0,0,0,0,0,0,0,0,0,0,0,0,0,0,0,0,0,0,0,0,0,0,0,0,0,0,0,0,0,0,0,0,0,0,0,0,0,0,0,0,0,0,0,0,0,0,0,-2.4051,-2.4051,0,-2.409,-2.409,-2.4091,-2.4019,-2.4017,-2.4015,-2.4012,-2.4057,-2.406,-2.4063,0,0,0,0,0,0,0,0,0,0,0,0,0,-2.3919,-2.3922,-2.4051,-2.4051,-2.4052,-2.409,-2.409,-2.4091,-2.402,-2.4017,-2.4014,-2.4011,-2.4056,-2.406,-2.4064,0,0,0,0,0,0,0,0,0,0,0,0,0,-2.3969,-2.3923,-2.4051,-2.4021,-2.4019,-2.409,-2.409,-2.4091,-2.4021,-2.4017,-2.4013,-2.401,-2.4054,-2.4059,-2.4064,-2.4168,0,0,-2.408,-2.4082,0,0,0,0,0,0,0,0,-2.3966,-2.3974,-2.4025,-2.4023,-2.4021,-2.4046,-2.406,-2.4117,-2.4021,-2.402,-2.4012,-2.4008,-2.4056,-2.4061,-2.4076,-2.417,-2.4172,-2.408,-2.4083,-2.4086,-2.4087,0,0,0,0,0,0,0,-2.3963,-2.3972,-2.4066,-2.4026,-2.4023,-2.4007,-2.401,-2.407,-2.4058,-2.402,-2.4015,-2.402,-2.4055,-2.4072,-2.4077,-2.4172,-2.408,-2.4085,-2.4088,-2.409,-2.4353,-2.4357,0,0,0,0,0,0,-2.3963,-2.397,-2.4065,-2.4068,-2.3984,-2.4012,-2.4016,-2.4042,-2.4057,-2.4056,-2.4023,-2.4017,-2.4065,-2.4071,-2.4078,-2.4201,-2.4086,-2.409,-2.4093,-2.4349,-2.4354,-2.4358,0,0,0,0,0,0,-2.396,-2.3972,-2.4064,-2.4017,-2.4028,-2.4018,-2.4048,-2.4044,-2.4061,-2.4059,-2.4057,-2.4043,-2.4062,-2.4071,-2.4146,-2.4201,-2.4093,-2.4097,-2.4345,-2.4351,-2.4356,-2.4447,0,0,0,0,0,0,-2.3957,-2.3971,-2.401,-2.4019,-2.403,-2.413,-2.4051,-2.4048,-2.407,-2.4062,-2.4077,-2.4076,-2.406,-2.4139,-2.4151,-2.4206,-2.4101,-2.434,-2.4347,-2.4354,-2.4439,-2.4455,-2.4469,0,0,0,0,0,-2.3952,-2.4035,-2.4012,-2.4024,-2.4078,-2.4133,-2.414,-2.4118,-2.4074,-2.4114,-2.4112,-2.4076,-2.4193,-2.4147,-2.416,-2.4218,-2.4336,-2.4345,-2.4354,-2.4432,-2.4452,-2.4469,0,0,0,0,0,0,-2.4034,-2.4035,-2.401,-2.4098,-2.4116,-2.4121,-2.4169,-2.414,-2.4172,-2.4163,-2.4136,-2.414,-2.422,-2.4226,-2.4175,-2.4319,-2.4257,-2.4269,-2.4312,-2.4331,-2.4346,-2.4343,-2.4106,0,0,0,0,0,-2.4062,-2.4105,-2.4104,-2.4182,-2.4192,-2.4179,-2.4202,-2.4184,-2.4202,-2.421,-2.4214,-2.4234,-2.4276,-2.4304,-2.4341,-2.4439,-2.4442,-2.4485,-2.45,-2.4513,-2.4524,-2.4577,-2.4596,-2.4387,-2.4387,-2.4387,0,0,-2.4121,-2.4127,-2.4156,-2.4198,-2.421,-2.4257,-2.4186,-2.4239,-2.4274,-2.4218,-2.4289,-2.4293,-2.4314,-2.44,-2.4439,-2.4408,-2.4582,-2.4524,-2.4534,-2.4538,-2.4588,-2.4608,-2.4625,-2.4393,-2.4392,-2.4391,0,0,-2.4251,-2.426,-2.4325,-2.4338,-2.4356,-2.4347,-2.4363,-2.4373,-2.4373,-2.4443,-2.4403,-2.4445,-2.4516,-2.4533,-2.4551,-2.4688,-2.4656,-2.4701,-2.478,-2.4832,-2.4849,-2.4863,-2.4913,-2.4931,-2.4712,-2.4712,-2.4712,0,-2.4323,-2.439,-2.4363,-2.4418,-2.4439,-2.4389,-2.4456,-2.447,-2.4501,-2.4517,-2.4481,-2.457,-2.458,-2.4671,-2.4704,-2.472,-2.4738,-2.47,-2.4848,-2.4862,-2.4876,-2.4923,-2.4942,-2.4717,-2.4717,-2.4716,-2.4716,0,-2.4477,-2.4525,-2.4576,-2.4605,-2.4631,-2.4692,-2.4675,-2.4705,-2.4684,-2.468,-2.4752,-2.4763,-2.4802,-2.4822,-2.4803,-2.491,-2.4891,-2.4852,-2.479,-2.4901,-2.4945,-2.4963,-2.4725,-2.4723,-2.4722,-2.472,0,0,-2.4662,-2.4674,-2.4694,-2.4706,-2.4723,-2.476,-2.4819,-2.4856,-2.4883,-2.4905,-2.4955,-2.5016,-2.4981,-2.5001,-2.4983,-2.5029,-2.5138,-2.4985,-2.4985,-2.5014,-2.5258,-2.5288,-2.5309,-2.5116,-2.512,-2.5122,-2.5257,0,-2.4792,-2.4893,-2.487,-2.4969,-2.5014,-2.4967,-2.5019,-2.5035,-2.5032,-2.5071,-2.5068,-2.5112,-2.5061,-2.5073,-2.5116,-2.5116,-2.5187,-2.5106,-2.5164,-2.5167,-2.5161,-2.5332,-2.5363,-2.549,-2.5274,-2.5277,-2.5279,0,-2.4958,-2.4986,-2.509,-2.5099,-2.5117,-2.5163,-2.5196,-2.5232,-2.525,-2.5245,-2.5268,-2.5241,-2.5301,-2.5237,-2.532,-2.5265,-2.5288,-2.5291,-2.5296,-2.5301,-2.523,-2.5343,-2.5529,-2.5549,-2.5305,-2.5303,-2.5301,0,-2.5084,-2.5147,-2.5217,-2.5229,-2.5242,-2.5276,-2.5283,-2.5297,-2.5321,-2.5349,-2.5365,-2.5401,-2.5421,-2.545,-2.5434,-2.5389,-2.5521,-2.5455,-2.552,-2.552,-2.555,-2.5549,-2.5744,-2.5563,-2.5563,-2.5563,-2.5562,0,-2.5233,-2.5298,-2.5273,-2.5317,-2.5389,-2.5363,-2.5436,-2.5437,-2.5451,-2.5494,-2.5456,-2.5499,-2.5475,-2.5516,-2.5504,-2.5575,-2.5585,-2.5583,-2.558,-2.5587,-2.5588,-2.5602,-2.5594,-2.5568,-2.5567,-2.5566,-2.5565,0,-2.5385,-2.5371,-2.5445,-2.545,-2.5453,-2.5506,-2.5511,-2.5552,-2.5546,-2.5602,-2.5614,-2.5605,-2.5652,-2.5638,-2.5689,-2.5681,-2.5771,-2.5756,-2.5765,-2.5762,-2.5827,-2.5821,-2.6039,-2.6067,-2.5868,-2.587,-2.5871,0,-2.5482,-2.5531,-2.5541,-2.5567,-2.5576,-2.5619,-2.5643,-2.5619,-2.5646,-2.567,-2.5708,-2.5751,-2.5783,-2.586,-2.5859,-2.5898,-2.5884,-2.5957,-2.5889,-2.5896,-2.5886,-2.5884,-2.5889,-2.5971,-2.5973,-2.5975,-2.5977,0,-2.5655,-2.5645,-2.568,-2.5713,-2.5742,-2.5768,-2.5789,-2.5813,-2.5791,-2.5823,-2.5869,-2.5894,-2.5945,-2.5988,-2.6024,-2.6032,-2.6002,-2.5998,-2.6015,-2.6024,-2.6028,-2.6028,-2.5803,-2.5993,-2.5992,-2.5991,-2.599,-2.5989,-2.5783,-2.5825,-2.5838,-2.5879,-2.5892,-2.5914,-2.5952,-2.5951,-2.5988,-2.6027,-2.6011,-2.6064,-2.6081,-2.6125,-2.6138,-2.6181,-2.6153,-2.6177,-2.6184,-2.619,-2.6199,-2.602,-2.6187,-2.6186,-2.6186,-2.6185,-2.6185,0,-2.5955,-2.5961,-2.5999,-2.603,-2.6062,-2.6028,-2.6051,-2.608,-2.6127,-2.6145,-2.6178,-2.6231,-2.6273,-2.6275,-2.6314,-2.6348,-2.6335,-2.6359,-2.6357,-2.636,-2.6221,-2.6203,-2.6369,-2.6369,-2.6369,-2.6369,-2.6369,-2.6369,-2.6048,-2.6117,-2.6109,-2.6185,-2.6191,-2.6242,-2.6257,-2.6277,-2.6291,-2.6352,-2.6386,-2.6386,-2.6399,-2.6438,-2.6476,-2.6475,-2.6492,-2.6522,-2.6517,-2.6388,-2.6369,-2.6352,-2.6335,-2.6525,-2.6526,-2.6651,-2.6653,-2.6653]},{"header":{"parameterUnit":"m.s-1","parameterCategory":1,"la1":30.2991,"la2":30.254,"lo1":-89.0895,"lo2":-89.0444,"dy":0.0017,"dx":0.0017,"nx":28,"ny":28,"refTime":"2025-02-10T03:00:00:Z","depth":0,"parameterNumber":3,"parameterNumberName":"V-component_of_WINDS"},"data":[0,0,0,0,0,0,0,0,0,0,0,0,0,0,0,0,0,0,0,0,0,0,0,0,0,0,0,0,0,0,0,0,0,0,0,0,0,0,0,0,0,0,0,0,0,0,0,0,0,0,0,0,0,0,0,0,0,0,-1.74,-1.74,0,-1.7349,-1.7348,-1.7348,-1.7298,-1.7297,-1.7296,-1.7296,-1.7241,-1.724,-1.7239,0,0,0,0,0,0,0,0,0,0,0,0,0,-1.7451,-1.7451,-1.74,-1.74,-1.7399,-1.7349,-1.7348,-1.7348,-1.7298,-1.7297,-1.7296,-1.7295,-1.7241,-1.724,-1.7239,0,0,0,0,0,0,0,0,0,0,0,0,0,-1.7418,-1.7451,-1.74,-1.7368,-1.7365,-1.7349,-1.7348,-1.7348,-1.7298,-1.7297,-1.7296,-1.7295,-1.7242,-1.724,-1.7239,-1.7251,0,0,-1.7235,-1.7235,0,0,0,0,0,0,0,0,-1.742,-1.7416,-1.7373,-1.737,-1.7366,-1.7329,-1.7346,-1.7315,-1.7298,-1.7323,-1.7296,-1.7295,-1.7271,-1.7267,-1.726,-1.7248,-1.7246,-1.7235,-1.7234,-1.7234,-1.7233,0,0,0,0,0,0,0,-1.7422,-1.7418,-1.738,-1.7373,-1.7369,-1.7355,-1.7349,-1.734,-1.7303,-1.7321,-1.7317,-1.7312,-1.7269,-1.7261,-1.7258,-1.7245,-1.7235,-1.7234,-1.7233,-1.7233,-1.7238,-1.7239,0,0,0,0,0,0,-1.743,-1.742,-1.7381,-1.7378,-1.7391,-1.7355,-1.7348,-1.7342,-1.7303,-1.7296,-1.7313,-1.731,-1.7264,-1.726,-1.7256,-1.7266,-1.7234,-1.7233,-1.7232,-1.7237,-1.7239,-1.724,0,0,0,0,0,0,-1.7431,-1.7427,-1.7384,-1.7398,-1.7392,-1.7355,-1.7348,-1.7341,-1.7333,-1.7297,-1.729,-1.7312,-1.7263,-1.7258,-1.7252,-1.7263,-1.7232,-1.7231,-1.7236,-1.7238,-1.7239,-1.7286,0,0,0,0,0,0,-1.7433,-1.7428,-1.7432,-1.7399,-1.7391,-1.7382,-1.7349,-1.7341,-1.7332,-1.7327,-1.7294,-1.7288,-1.7262,-1.7254,-1.7251,-1.7261,-1.723,-1.7235,-1.7237,-1.7239,-1.7284,-1.7289,-1.7294,0,0,0,0,0,-1.7435,-1.7448,-1.7433,-1.7429,-1.7397,-1.7383,-1.7378,-1.7349,-1.7333,-1.7337,-1.7313,-1.7289,-1.7263,-1.7254,-1.725,-1.726,-1.7234,-1.7237,-1.7239,-1.7281,-1.7288,-1.7294,0,0,0,0,0,0,-1.7483,-1.7443,-1.7426,-1.7429,-1.741,-1.7374,-1.7379,-1.7357,-1.7341,-1.7338,-1.7301,-1.7294,-1.7292,-1.7275,-1.7267,-1.7268,-1.7245,-1.7246,-1.7279,-1.7285,-1.729,-1.7294,-1.7229,0,0,0,0,0,-1.7494,-1.7487,-1.7452,-1.7457,-1.7449,-1.7416,-1.7408,-1.7387,-1.7365,-1.7357,-1.7333,-1.7312,-1.7299,-1.7291,-1.7277,-1.7281,-1.7272,-1.7285,-1.729,-1.7295,-1.7296,-1.7295,-1.73,-1.7246,-1.7246,-1.7246,0,0,-1.7517,-1.7494,-1.7492,-1.7467,-1.7449,-1.7442,-1.7409,-1.7403,-1.7396,-1.7356,-1.7349,-1.733,-1.7305,-1.7304,-1.7302,-1.7289,-1.7309,-1.7297,-1.7301,-1.73,-1.7298,-1.7303,-1.7307,-1.7248,-1.7247,-1.7247,0,0,-1.7554,-1.7537,-1.7539,-1.7522,-1.7497,-1.7474,-1.7475,-1.7442,-1.7429,-1.7421,-1.739,-1.7382,-1.736,-1.7343,-1.7331,-1.736,-1.7337,-1.7357,-1.7383,-1.7383,-1.7387,-1.739,-1.74,-1.7404,-1.7358,-1.7358,-1.7358,0,-1.7585,-1.7574,-1.7543,-1.7538,-1.7527,-1.749,-1.7491,-1.7476,-1.7447,-1.744,-1.7427,-1.7398,-1.7378,-1.7372,-1.7379,-1.7371,-1.7369,-1.736,-1.7389,-1.7392,-1.7395,-1.7403,-1.7407,-1.7361,-1.736,-1.736,-1.736,0,-1.7613,-1.7605,-1.761,-1.7583,-1.7573,-1.7571,-1.7538,-1.7531,-1.7511,-1.7489,-1.7481,-1.7456,-1.7435,-1.7432,-1.7412,-1.7422,-1.7415,-1.7396,-1.7372,-1.7403,-1.741,-1.7413,-1.7364,-1.7363,-1.7363,-1.7362,0,0,-1.768,-1.7635,-1.7637,-1.7624,-1.7593,-1.7585,-1.7581,-1.7562,-1.7556,-1.7537,-1.7531,-1.7514,-1.7495,-1.7482,-1.7459,-1.7459,-1.7482,-1.7439,-1.7438,-1.7447,-1.749,-1.7504,-1.7509,-1.7466,-1.7467,-1.7467,-1.7492,0,-1.7711,-1.7703,-1.7674,-1.7674,-1.7665,-1.7629,-1.7625,-1.7605,-1.7584,-1.7573,-1.755,-1.7538,-1.7515,-1.7506,-1.7504,-1.748,-1.749,-1.7477,-1.7459,-1.7459,-1.7467,-1.7512,-1.7528,-1.7553,-1.7494,-1.7495,-1.7495,0,-1.7747,-1.773,-1.773,-1.7697,-1.7692,-1.769,-1.7669,-1.7659,-1.7634,-1.7619,-1.7604,-1.7578,-1.757,-1.7549,-1.7536,-1.7528,-1.7519,-1.7505,-1.7505,-1.7502,-1.7479,-1.751,-1.756,-1.7563,-1.75,-1.7499,-1.7499,0,-1.7795,-1.7772,-1.7768,-1.7758,-1.7721,-1.7719,-1.7703,-1.7678,-1.7667,-1.7649,-1.7641,-1.7622,-1.7611,-1.7595,-1.7564,-1.7552,-1.7555,-1.7531,-1.7541,-1.7541,-1.7543,-1.7543,-1.7592,-1.7538,-1.7538,-1.7538,-1.7538,0,-1.7832,-1.7833,-1.7789,-1.7787,-1.7786,-1.7752,-1.7751,-1.7732,-1.7709,-1.7701,-1.7669,-1.7662,-1.7622,-1.7609,-1.7585,-1.7577,-1.7573,-1.7559,-1.7553,-1.7562,-1.7564,-1.7555,-1.7552,-1.7539,-1.7539,-1.7539,-1.7538,0,-1.7886,-1.7857,-1.785,-1.7815,-1.7806,-1.7807,-1.7776,-1.7771,-1.7748,-1.7739,-1.7734,-1.7698,-1.7682,-1.7649,-1.7624,-1.7608,-1.7605,-1.7594,-1.7614,-1.761,-1.7621,-1.762,-1.7665,-1.7669,-1.7614,-1.7615,-1.7615,0,-1.7912,-1.7911,-1.7876,-1.7869,-1.7854,-1.7843,-1.7832,-1.7798,-1.7788,-1.7759,-1.7758,-1.7739,-1.7723,-1.7698,-1.7669,-1.7649,-1.7636,-1.7653,-1.7633,-1.7642,-1.7635,-1.7635,-1.7634,-1.7658,-1.7658,-1.7659,-1.766,0,-1.796,-1.7945,-1.7932,-1.7913,-1.7901,-1.7885,-1.7866,-1.7861,-1.7823,-1.7813,-1.7796,-1.7783,-1.7757,-1.7738,-1.7714,-1.7696,-1.7671,-1.7666,-1.7667,-1.7676,-1.7688,-1.7681,-1.7626,-1.7665,-1.7665,-1.7664,-1.7664,-1.7664,-1.8,-1.7997,-1.7972,-1.7957,-1.794,-1.7923,-1.7917,-1.7893,-1.7879,-1.7856,-1.7836,-1.7821,-1.7794,-1.7759,-1.7742,-1.7728,-1.7716,-1.7718,-1.7718,-1.7719,-1.7723,-1.769,-1.7724,-1.7723,-1.7723,-1.7723,-1.7723,0,-1.8046,-1.8028,-1.8015,-1.799,-1.7978,-1.7956,-1.7934,-1.7925,-1.7913,-1.789,-1.7875,-1.7855,-1.7836,-1.7805,-1.7783,-1.7778,-1.7766,-1.7773,-1.7773,-1.7769,-1.7735,-1.7736,-1.7783,-1.7783,-1.7783,-1.7783,-1.7783,-1.7783,-1.8068,-1.8063,-1.8045,-1.803,-1.8011,-1.7996,-1.7985,-1.7969,-1.7951,-1.793,-1.7915,-1.7895,-1.7869,-1.7844,-1.7826,-1.7817,-1.781,-1.7821,-1.7808,-1.7777,-1.7771,-1.7766,-1.7767,-1.782,-1.782,-1.7843,-1.7843,-1.7843]}]]